When you browse on this site, cookies collect data to enhance your experience and personalize the content and advertising you see.
Visit our Privacy Policy to learn more. By continuing to use the site, you agree to this use of cookies and data.
  • In Romania
  • List of Countries
  • For 7 days
  • Water Temperature
  • Satellite Maps
  • Weather Map
  • Weather Widgets
  • user-avatar
    Login

    Hourly Weather Arnara

    Today, 22 February, Friday

    Time Temperature Precipitation Wind Pressure Humidity
    00:00 +8°C° 0 mm 1 mps 752 mmHg 78%
    01:00 +8°C° 0 mm 1 mps 752 mmHg 77%
    02:00 +8°C° 0 mm 1 mps 752 mmHg 76%
    03:00 +8°C° 0 mm 1 mps 752 mmHg 75%
    04:00 +8°C° 0 mm 1 mps 751 mmHg 74%
    05:00 +7°C° 0 mm 1 mps 751 mmHg 73%
    06:00 +7°C° 0 mm 1 mps 751 mmHg 72%
    07:00 +7°C° 0 mm 1 mps 751 mmHg 71%
    08:00 +9°C° 0 mm 1 mps 751 mmHg 65%
    09:00 +12°C° 0 mm 1 mps 751 mmHg 58%
    10:00 +14°C° 0 mm 1 mps 751 mmHg 51%
    11:00 +15°C° 0 mm 1 mps 750 mmHg 49%
    12:00 +16°C° 0 mm 1 mps 750 mmHg 47%
    13:00 +18°C° 0 mm 1 mps 750 mmHg 45%
    14:00 +16°C° 0 mm 1 mps 750 mmHg 47%
    15:00 +16°C° 0 mm 1 mps 749 mmHg 49%
    16:00 +16°C° 0 mm 1 mps 749 mmHg 51%
    17:00 +14°C° 0 mm 1 mps 749 mmHg 55%
    18:00 +13°C° 0 mm 1 mps 750 mmHg 60%
    19:00 +11°C° 0 mm 1 mps 750 mmHg 65%
    20:00 +10°C° 0 mm 2 mps 750 mmHg 65%
    21:00 +9°C° 0 mm 2 mps 750 mmHg 65%
    22:00 +9°C° 0 mm 2 mps 750 mmHg 64%
    23:00 +8°C° 0 mm 2 mps 751 mmHg 67%

    Tomorrow, 23 February, Saturday

    Time Temperature Precipitation Wind Pressure Humidity
    00:00 +8°C° 0 mm 2 mps 751 mmHg 69%
    01:00 +7°C° 0 mm 2 mps 751 mmHg 71%
    02:00 +7°C° 0 mm 2 mps 751 mmHg 70%
    03:00 +6°C° 0 mm 2 mps 751 mmHg 70%
    04:00 +5°C° 0 mm 2 mps 751 mmHg 69%
    05:00 +5°C° 0 mm 2 mps 751 mmHg 68%
    06:00 +4°C° 0 mm 2 mps 751 mmHg 67%
    07:00 +4°C° 0 mm 2 mps 751 mmHg 66%
    08:00 +4°C° 0 mm 3 mps 752 mmHg 55%
    09:00 +5°C° 0 mm 3 mps 752 mmHg 44%
    10:00 +8°C° 0 mm 3 mps 752 mmHg 33%
    11:00 +7°C° 0 mm 4 mps 752 mmHg 30%
    12:00 +7°C° 0 mm 4 mps 752 mmHg 27%
    13:00 +7°C° 0 mm 4 mps 751 mmHg 25%
    14:00 +6°C° 0 mm 4 mps 751 mmHg 27%
    15:00 +5°C° 0 mm 4 mps 751 mmHg 30%
    16:00 +4°C° 0 mm 4 mps 751 mmHg 32%
    17:00 +3°C° 0 mm 3 mps 751 mmHg 37%
    18:00 +2°C° 0 mm 3 mps 751 mmHg 42%
    19:00 +1°C° 0 mm 2 mps 751 mmHg 47%
    20:00 +1°C° 0 mm 2 mps 752 mmHg 48%
    21:00 +1°C° 0 mm 2 mps 752 mmHg 50%
    22:00 +1°C° 0 mm 2 mps 753 mmHg 51%
    23:00 +1°C° 0 mm 2 mps 753 mmHg 52%

    Day after tomorrow, 24 February, Sunday

    Time Temperature Precipitation Wind Pressure Humidity
    00:00 +1°C° 0 mm 2 mps 753 mmHg 52%
    01:00 +1°C° 0 mm 2 mps 753 mmHg 53%
    02:00 +1°C° 0 mm 2 mps 752 mmHg 54%
    03:00 +1°C° 0 mm 2 mps 752 mmHg 54%
    04:00 -1°C° 0 mm 2 mps 752 mmHg 55%
    05:00 -1°C° 0 mm 2 mps 752 mmHg 55%
    06:00 -1°C° 0 mm 2 mps 752 mmHg 56%
    07:00 -1°C° 0 mm 2 mps 752 mmHg 56%
    08:00 +2°C° 0 mm 2 mps 752 mmHg 49%
    09:00 +4°C° 0 mm 2 mps 752 mmHg 43%
    10:00 +6°C° 0 mm 2 mps 752 mmHg 36%
    11:00 +7°C° 0 mm 2 mps 752 mmHg 35%
    12:00 +8°C° 0 mm 2 mps 752 mmHg 34%
    13:00 +9°C° 0 mm 2 mps 752 mmHg 32%
    14:00 +8°C° 0 mm 2 mps 752 mmHg 34%
    15:00 +8°C° 0 mm 2 mps 752 mmHg 36%
    16:00 +8°C° 0 mm 2 mps 752 mmHg 38%
    17:00 +6°C° 0 mm 2 mps 753 mmHg 44%
    18:00 +4°C° 0 mm 2 mps 753 mmHg 49%
    19:00 +2°C° 0 mm 2 mps 753 mmHg 54%
    20:00 +2°C° 0 mm 2 mps 754 mmHg 55%
    21:00 +2°C° 0 mm 2 mps 754 mmHg 56%
    22:00 +2°C° 0 mm 2 mps 755 mmHg 56%
    23:00 +2°C° 0 mm 2 mps 755 mmHg 55%

    25 February, Monday

    Time Temperature Precipitation Wind Pressure Humidity
    00:00 +2°C° 0 mm 2 mps 755 mmHg 54%
    01:00 +2°C° 0 mm 2 mps 755 mmHg 53%
    02:00 +2°C° 0 mm 2 mps 755 mmHg 52%
    03:00 +2°C° 0 mm 2 mps 755 mmHg 52%
    04:00 +2°C° 0 mm 2 mps 755 mmHg 51%
    05:00 +2°C° 0 mm 2 mps 755 mmHg 51%
    06:00 +2°C° 0 mm 2 mps 754 mmHg 50%
    07:00 +2°C° 0 mm 2 mps 754 mmHg 50%
    08:00 +5°C° 0 mm 2 mps 754 mmHg 45%
    09:00 +7°C° 0 mm 2 mps 755 mmHg 40%
    10:00 +10°C° 0 mm 2 mps 755 mmHg 35%
    11:00 +12°C° 0 mm 2 mps 754 mmHg 33%
    12:00 +14°C° 0 mm 2 mps 754 mmHg 32%
    13:00 +15°C° 0 mm 2 mps 754 mmHg 30%
    14:00 +15°C° 0 mm 2 mps 753 mmHg 33%
    15:00 +14°C° 0 mm 2 mps 753 mmHg 35%
    16:00 +14°C° 0 mm 2 mps 753 mmHg 38%
    17:00 +10°C° 0 mm 2 mps 753 mmHg 45%
    18:00 +8°C° 0 mm 2 mps 753 mmHg 51%
    19:00 +6°C° 0 mm 2 mps 753 mmHg 58%
    20:00 +5°C° 0 mm 2 mps 753 mmHg 61%
    21:00 +5°C° 0 mm 2 mps 753 mmHg 65%
    22:00 +4°C° 0 mm 2 mps 753 mmHg 68%
    23:00 +3°C° 0 mm 3 mps 752 mmHg 68%

    26 February, Tuesday

    Time Temperature Precipitation Wind Pressure Humidity
    00:00 +3°C° 0 mm 3 mps 752 mmHg 69%
    01:00 +3°C° 0 mm 3 mps 752 mmHg 69%
    02:00 +3°C° 0 mm 3 mps 752 mmHg 71%
    03:00 +4°C° 0 mm 2 mps 751 mmHg 73%
    04:00 +4°C° 0 mm 2 mps 751 mmHg 75%
    05:00 +4°C° 0 mm 2 mps 751 mmHg 76%
    06:00 +4°C° 0 mm 2 mps 751 mmHg 77%
    07:00 +4°C° 0 mm 2 mps 750 mmHg 78%
    08:00 +7°C° 0 mm 2 mps 751 mmHg 69%
    09:00 +11°C° 0 mm 1 mps 751 mmHg 61%
    10:00 +13°C° 0 mm 1 mps 751 mmHg 53%
    11:00 +14°C° 0 mm 1 mps 751 mmHg 49%
    12:00 +15°C° 0 mm 1 mps 751 mmHg 46%
    13:00 +18°C° 0 mm 1 mps 751 mmHg 43%
    14:00 +16°C° 0 mm 1 mps 751 mmHg 44%
    15:00 +16°C° 0 mm 1 mps 751 mmHg 46%
    16:00 +16°C° 0 mm 2 mps 751 mmHg 47%
    17:00 +14°C° 0 mm 2 mps 751 mmHg 55%
    18:00 +12°C° 0 mm 2 mps 751 mmHg 62%
    19:00 +9°C° 0 mm 2 mps 751 mmHg 69%
    20:00 +8°C° 0 mm 2 mps 751 mmHg 69%
    21:00 +8°C° 0 mm 2 mps 751 mmHg 68%
    22:00 +7°C° 0 mm 2 mps 751 mmHg 68%
    23:00 +7°C° 0 mm 2 mps 751 mmHg 63%

    27 February, Wednesday

    Time Temperature Precipitation Wind Pressure Humidity
    00:00 +7°C° 0 mm 2 mps 751 mmHg 58%
    01:00 +7°C° 0 mm 2 mps 751 mmHg 53%
    02:00 +7°C° 0 mm 2 mps 751 mmHg 51%
    03:00 +7°C° 0 mm 2 mps 751 mmHg 49%
    04:00 +7°C° 0 mm 2 mps 750 mmHg 47%
    05:00 +7°C° 0 mm 2 mps 750 mmHg 49%
    06:00 +7°C° 0 mm 2 mps 750 mmHg 51%
    07:00 +7°C° 0 mm 2 mps 750 mmHg 53%
    08:00 +11°C° 0 mm 1 mps 751 mmHg 51%
    09:00 +13°C° 0 mm 1 mps 751 mmHg 50%
    10:00 +16°C° 0 mm 1 mps 751 mmHg 48%
    11:00 +18°C° 0 mm 1 mps 751 mmHg 46%
    12:00 +19°C° 0 mm 1 mps 751 mmHg 44%
    13:00 +20°C° 0 mm 1 mps 751 mmHg 41%
    14:00 +20°C° 0 mm 1 mps 750 mmHg 40%
    15:00 +20°C° 0 mm 1 mps 750 mmHg 40%
    16:00 +19°C° 0 mm 1 mps 750 mmHg 39%
    17:00 +16°C° 0 mm 2 mps 750 mmHg 42%
    18:00 +14°C° 0 mm 2 mps 750 mmHg 45%
    19:00 +10°C° 0 mm 2 mps 750 mmHg 47%
    20:00 +10°C° 0 mm 2 mps 750 mmHg 44%
    21:00 +9°C° 0 mm 2 mps 750 mmHg 41%
    22:00 +9°C° 0 mm 2 mps 751 mmHg 38%
    23:00 +8°C° 0 mm 2 mps 751 mmHg 38%
    Show more